User: anonymous   Login
Location: Unspecified
(0.0000°N, 0.0000°E)
Time: 20:24:40
(UTC+00:00)
Language:

Aussat K3 - Orbit

View from above orbital plane
View from above orbital plane
View from above satellite
View from above satellite

Ground track
Ground track

The orbit data is extracted from the following two-line orbital elements,

1 18350U 87078A   16272.37727304 -.00000016 +00000-0 +00000-0 0  9996
2 18350 014.4928 020.8492 0007304 252.9786 128.3392 00.98904202010941
Epoch (UTC): 28 September 2016 09:03:16
Eccentricity: 0.0007304
inclination: 14.4928°
perigee height: 36143 km
apogee height: 36205 km
right ascension of ascending node: 20.8492°
argument of perigee: 252.9786°
revolutions per day: 0.98904202
mean anomaly at epoch: 128.3392°
orbit number at epoch: 1094

The dashed part of the orbit path shows where the satellite is in the earth's shadow,  

DLR